Location: *
(33.8649°S, 62.1526°E)
Time: 04:46:47
(UTC+00:00)

FALCON 9 DEB - Pass Details

Date: 17 January 2021
Orbit: 372 x 386 km, 53.0° (Epoch: 27 February)

Event Time Altitude Azimuth Distance (km) Brightness Sun altitude
Rises 16:34:45 0° 306° (NW) 2,277 7.0 -16.6°
Reaches altitude 10° 16:36:50 10° 300° (WNW) 1,431 6.0 -16.9°
Maximum altitude 16:39:58 51° 223° (SW) 510 3.8 -17.4°
Drops below altitude 10° 16:43:09 10° 145° (SE) 1,455 5.9 -17.9°
Sets 16:45:17 0° 140° (SE) 2,320 6.8 -18.2°
